Date String (YYYY-MM-DD hh:mm:ss) UTC,Instrument flags,Ambient pressure (hPa),Sample flow (lpm),Bypass flow (lpm),Sample temperature (°C),Ambient temperature (°C),ASC tube jacket temperature (°C),LED temperature (°C),Box temperature (°C),Sample RH (%),Span deviation,Mass concentration (μg/m³),Mass concentration (μg/m³),Mass concentration (μg/m³)
DateTimeUTC,F1_M11,P_M11,Q1_M11,Q2_M11,T1_M11,T2_M11,T3_M11,T4_M11,T5_M11,U1_M11,ZSPAN_M11,X0_M11,X2_M11,X1_M11
2022-10-21 19:00:00,,0819.0,4.99,0.00,29.7,28.2,00.0,38.6,31.5,06.8,0000.0,0008.68,0004.45,0004.13
2022-10-21 19:01:00,,0818.9,5.01,0.00,29.7,28.3,00.0,38.6,31.5,06.6,0000.0,0008.60,0004.41,0004.09
2022-10-21 19:02:00,,0818.9,5.00,0.00,29.7,28.4,00.0,38.6,31.6,06.5,0000.0,0008.45,0004.35,0004.04
2022-10-21 19:03:00,,0818.9,4.99,0.00,29.7,28.4,00.0,38.6,31.6,06.7,0000.0,0008.66,0004.29,0003.97
2022-10-21 19:04:00,,0818.9,5.01,0.00,29.8,28.5,00.0,38.6,31.6,06.6,0000.0,0009.34,0004.24,0003.92
2022-10-21 19:05:00,,0818.9,5.01,0.00,29.8,28.6,00.0,38.6,31.7,06.5,0000.0,0008.93,0004.24,0003.89
2022-10-21 19:06:00,,0818.9,5.00,0.00,29.8,28.6,00.0,38.7,31.7,06.6,0000.0,0008.76,0004.21,0003.85
2022-10-21 19:07:00,,0818.9,4.99,0.00,29.8,28.7,00.0,38.7,31.7,06.5,0000.0,0008.78,0004.18,0003.83
2022-10-21 19:08:00,,0818.8,5.01,0.00,29.9,28.7,00.0,38.7,31.8,06.5,0000.0,0008.40,0004.14,0003.80
2022-10-21 19:09:00,,0818.8,5.02,0.00,29.9,27.6,00.0,38.7,31.8,06.7,0000.0,0008.79,0004.12,0003.76
2022-10-21 19:10:00,,0818.7,4.99,0.00,29.8,26.4,00.0,38.6,31.5,06.8,0000.0,0009.04,0004.07,0003.72
2022-10-21 19:11:00,,0818.7,4.99,0.00,29.8,26.3,00.0,38.5,31.5,06.8,0000.0,0008.79,0004.02,0003.68
2022-10-21 19:12:00,,0818.7,5.00,0.00,29.8,26.6,00.0,38.5,31.4,06.6,0000.0,0009.08,0004.02,0003.64
2022-10-21 19:13:00,,0818.8,5.00,0.00,29.7,26.9,00.0,38.5,31.3,06.6,0000.0,0009.13,0004.00,0003.61
2022-10-21 19:14:00,,0818.7,4.99,0.00,29.6,27.2,00.0,38.5,31.3,06.6,0000.0,0009.40,0003.95,0003.57
2022-10-21 19:15:00,,0818.7,5.01,0.00,29.6,27.5,00.0,38.5,31.3,06.6,0000.0,0008.81,0003.92,0003.55
2022-10-21 19:16:00,,0818.7,5.01,0.00,29.6,27.7,00.0,38.5,31.3,06.4,0000.0,0009.04,0003.88,0003.52
2022-10-21 19:17:00,,0818.5,5.01,0.00,29.6,27.9,00.0,38.5,31.4,06.6,0000.0,0009.33,0003.85,0003.50
2022-10-21 19:18:00,,0818.6,5.00,0.00,29.6,28.0,00.0,38.5,31.4,06.7,0000.0,0009.30,0003.84,0003.46
2022-10-21 19:19:00,,0818.5,4.98,0.00,29.6,28.1,00.0,38.5,31.4,06.7,0000.0,0009.21,0003.82,0003.45
2022-10-21 19:20:00,,0818.5,5.01,0.00,29.6,28.2,00.0,38.5,31.4,06.6,0000.0,0008.98,0003.80,0003.43
2022-10-21 19:21:00,,0818.4,5.00,0.00,29.6,28.3,00.0,38.5,31.5,06.6,0000.0,0008.46,0003.78,0003.41
2022-10-21 19:22:00,,0818.5,5.01,0.00,29.7,28.3,00.0,38.6,31.5,06.6,0000.0,0008.36,0003.77,0003.38
2022-10-21 19:23:00,,0818.4,4.99,0.00,29.7,28.4,00.0,38.6,31.5,06.7,0000.0,0008.09,0003.69,0003.36
2022-10-21 19:24:00,,0818.4,5.00,0.00,29.7,28.5,00.0,38.6,31.6,06.8,0000.0,0007.92,0003.66,0003.34
2022-10-21 19:25:00,,0818.4,5.01,0.00,29.7,28.5,00.0,38.6,31.6,06.4,0000.0,0007.40,0003.64,0003.32
2022-10-21 19:26:00,,0818.3,5.01,0.00,29.8,28.6,00.0,38.6,31.7,06.5,0000.0,0006.83,0003.62,0003.29
2022-10-21 19:27:00,,0818.4,4.99,0.00,29.8,28.6,00.0,38.6,31.7,06.7,0000.0,0006.26,0003.56,0003.27
2022-10-21 19:28:00,,0818.4,5.00,0.00,29.8,28.7,00.0,38.6,31.7,06.8,0000.0,0005.63,0003.53,0003.23
2022-10-21 19:29:00,,0818.3,5.01,0.00,29.8,28.7,00.0,38.7,31.7,06.8,0000.0,0005.45,0003.45,0003.20
2022-10-21 19:30:00,,0818.4,4.99,0.00,29.9,28.1,00.0,38.7,31.7,06.8,0000.0,0005.49,0003.40,0003.15
2022-10-21 19:31:00,,0818.4,4.99,0.00,29.9,26.9,00.0,38.6,31.7,06.9,0000.0,0005.43,0003.34,0003.09
2022-10-21 19:32:00,,0818.3,5.00,0.00,29.8,26.8,00.0,38.5,31.7,06.7,0000.0,0004.98,0003.30,0003.01
2022-10-21 19:33:00,,0818.3,4.99,0.00,29.8,27.1,00.0,38.5,31.5,06.7,0000.0,0004.99,0003.27,0002.96
2022-10-21 19:34:00,,0818.2,5.01,0.00,29.7,27.4,00.0,38.5,31.5,07.0,0000.0,0005.06,0003.25,0002.91
2022-10-21 19:35:00,,0818.2,5.01,0.00,29.7,27.6,00.0,38.6,31.5,07.1,0000.0,0004.94,0003.21,0002.87
2022-10-21 19:36:00,,0818.3,4.99,0.00,29.7,27.8,00.0,38.6,31.5,07.0,0000.0,0004.90,0003.19,0002.82
2022-10-21 19:37:00,,0818.1,5.01,0.00,29.7,28.0,00.0,38.6,31.5,06.9,0000.0,0004.85,0003.14,0002.77
2022-10-21 19:38:00,,0818.1,4.99,0.00,29.7,28.1,00.0,38.6,31.5,06.9,0000.0,0004.87,0003.13,0002.74
2022-10-21 19:39:00,,0818.2,4.99,0.00,29.7,28.2,00.0,38.6,31.5,07.0,0000.0,0004.79,0003.12,0002.70
2022-10-21 19:40:00,,0818.2,5.00,0.00,29.7,28.3,00.0,38.6,31.6,07.0,0000.0,0004.81,0003.13,0002.67
2022-10-21 19:41:00,,0818.1,5.01,0.00,29.8,28.4,00.0,38.6,31.6,07.0,0000.0,0004.67,0003.12,0002.67
2022-10-21 19:42:00,,0818.2,5.00,0.00,29.8,28.4,00.0,38.6,31.6,07.1,0000.0,0004.91,0003.14,0002.68
2022-10-21 19:43:00,,0818.1,5.00,0.00,29.8,28.5,00.0,38.6,31.7,07.0,0000.0,0005.01,0003.14,0002.67
2022-10-21 19:44:00,,0818.2,4.99,0.00,29.8,28.5,00.0,38.6,31.7,07.0,0000.0,0005.09,0003.14,0002.65
2022-10-21 19:45:00,,0818.1,5.00,0.00,29.8,28.6,00.0,38.7,31.7,06.9,0000.0,0005.05,0003.13,0002.62
2022-10-21 19:46:00,,0818.0,5.01,0.00,29.8,28.6,00.0,38.7,31.7,07.0,0000.0,0005.14,0003.11,0002.59
2022-10-21 19:47:00,,0818.1,5.01,0.00,29.9,28.6,00.0,38.7,31.7,07.0,0000.0,0006.43,0003.12,0002.57
2022-10-21 19:48:00,,0818.0,5.00,0.00,29.9,28.7,00.0,38.7,31.7,07.1,0000.0,0006.69,0003.13,0002.56
2022-10-21 19:49:00,,0818.1,4.99,0.00,29.9,28.3,00.0,38.7,31.8,07.1,0000.0,0007.60,0003.12,0002.54
2022-10-21 19:50:00,,0818.1,4.99,0.00,29.9,26.9,00.0,38.7,31.6,07.0,0000.0,0008.01,0003.10,0002.53
2022-10-21 19:51:00,,0818.0,4.99,0.00,29.8,26.1,00.0,38.6,31.5,06.9,0000.0,0008.01,0003.11,0002.52
2022-10-21 19:52:00,,0818.0,4.99,0.00,29.8,26.2,00.0,38.5,31.4,06.9,0000.0,0008.61,0003.12,0002.50
2022-10-21 19:53:00,,0818.0,5.02,0.00,29.7,26.5,00.0,38.5,31.3,06.9,0000.0,0008.78,0003.13,0002.48
2022-10-21 19:54:00,,0818.0,5.01,0.00,29.6,26.8,00.0,38.5,31.3,06.9,0000.0,0008.73,0003.13,0002.46
2022-10-21 19:55:00,,0818.0,5.01,0.00,29.6,27.2,00.0,38.5,31.3,07.0,0000.0,0008.68,0003.10,0002.44
2022-10-21 19:56:00,,0818.0,5.00,0.00,29.6,27.4,00.0,38.5,31.3,07.0,0000.0,0009.05,0003.09,0002.45
2022-10-21 19:57:00,,0818.0,5.01,0.00,29.6,27.7,00.0,38.5,31.3,07.0,0000.0,0009.80,0003.12,0002.44
2022-10-21 19:58:00,,0817.9,4.99,0.00,29.6,27.8,00.0,38.5,31.4,07.1,0000.0,0009.08,0003.08,0002.42
2022-10-21 19:59:00,,0817.9,4.99,0.00,29.6,28.0,00.0,38.5,31.4,07.2,0000.0,0008.86,0003.06,0002.41
